Back to catalog

WNISAT 1

AliveWeatherSSO
NORAD 39423·PAYLOAD·🇯🇵 Japan

Launched Nov 21, 2013 from Dombarovsky

Loading…

Next Passes (next 24 hours)

TLE

FreshSource: Space-Track

Epoch: Sep 14, 2026, 08:24 UTC

1 39423U 13066H   26257.35062067  .00000401  00000-0  82072-4 0  9996
2 39423  97.7335  40.2454 0161632 311.3980  47.3420 14.58192713679722

Track WNISAT 1 in real time with AllMySat

Download on the App Store